arxmliv
arxmliv build tool
 
KWARC group
LaTeXML
About
   
 

Detailed info

Back to Homepage

List of missing_macros

No. Date Filename num_warningnum_errornum_xmargok_xmargnum_xmathok_xmathMissing macros
47601 2013-04-09 11:41:46 /1005/1005.0098 030000[\extrasenglish, \dateenglish, \captionsenglish].
47602 2013-04-09 11:41:40 /1005/1005.0092 130000[\IEEEauthorblockA, \IEEEauthorblockN]; 2 missing files[IEEEtran.cls, mathtext.sty].
47603 2013-04-09 11:41:31 /1005/1005.0099 870000[\ShortTitle, {sidewaystable*}, \email, \FullConference, \acknowledgments, \speaker]; 1 missing file[PoS.cls].
47604 2013-04-09 11:41:21 /1005/1005.0097 030000[\bodymatter, \refcite]; 1 missing file[ws.sty].
47605 2013-04-09 11:41:14 /1005/1005.0100 050000[\psfig, \bodymatter, \refcite, \keywords]; 1 missing file[ws.sty].
47606 2013-04-09 11:41:12 /1005/1005.0043 90110000[{IEEEkeywords}, \mathds, \IEEEPARstart, \IEEEpeerreviewmaketitle, \ifCLASSOPTIONcaptionsoff, {IEEEproof}, \ifCLASSINFOpdf]; 2 missing files[pdfpages.sty, IEEEtran.cls].
47607 2013-04-09 11:40:56 /1005/1005.0073 410000[\psfrag].
47608 2013-04-09 11:40:50 /1005/1005.0068 120100000[\fmffreeze, {fmffile}, \smaller, \fmf, \fmflabel, \fmfdot, {fmfgraph*}, \fmfleft, \fmfright]; 1 missing file[graphpap.sty].
47609 2013-04-09 11:40:43 /1005/1005.0089 4260000[{algorithm}, \Parallel, \If, \For, \lElse, \titlerunning, \scalebox, \url, \Input, \authorrunning, \DecMargin, \SetKwInOut, \SetKwBlock, \Solved, \Else, \While, \hypersetup, \IncMargin, \includegraphics, \Output, \BlankLine, \SetKwFunction, \lIf]; 1 miss
47610 2013-04-09 11:40:17 /1005/1005.0069 070000[\extrasenglish, \subfloat, \midrule, \toprule, \bottomrule, \dateenglish, \captionsenglish].
47611 2013-04-09 11:40:01 /1005/1005.0031 60260000[\D, \@end@institute, \E, \svhline, \I]; 1 missing file[type1cm.sty].
47612 2013-04-09 11:39:26 /1005/1005.0066 3420000[\midrule, \bottomrule].
47613 2013-04-09 11:39:19 /1005/1005.0037 6210000[\theappendix].
47614 2013-04-09 11:39:11 /1005/1005.0036 35110000[\Pa, \ArIII, \HII, \CII, \HI, \ArII, \Ha, \fwhm, \OI]; 2 missing files[iondefs.sty, apjfonts.sty].
47615 2013-04-09 11:38:39 /1005/1005.0056 14220000[\affil, \apj, \timeform, \citep, \emissiontype, \pasj, \aaps, \apjl, \aap, \nat, \gca, \Accepted, \email, \KeyWords, \aj, \Received, \apjs, \mnras, \FigureFile, \Mo, \citet, \SetRunningHead]; 1 missing file[pasj00.cls].
47616 2013-04-09 11:38:24 /1005/1005.0025 230000[{sidewaystable}]; 2 missing files[pdflscape.sty, mdwlist.sty].
47617 2013-04-09 11:38:18 /1005/1005.0044 170000[\ccode, \catchline, {history}, \revised, \refcite, \keywords, \received].
47618 2013-04-09 11:37:50 /1005/1005.0026 280000[\includegraphics, \colrule, \botrule, \bodymatter, \toprule, \tbl, \keywords]; 1 missing file[ws.sty].
47619 2013-04-09 11:37:33 /1005/1005.0023 2320000[\includegraphics]; 1 missing file[graphicx].
47620 2013-04-09 11:37:27 /1005/1005.0019 120000[{CJK*}]; 1 missing file[CJK.sty].
47621 2013-04-09 11:37:15 /1005/1005.0022 110000[\ead].
47622 2013-04-09 11:36:53 /1004/1004.5597 1740000[\node, \arrow, {diagram}].
47623 2013-04-09 11:36:14 /1004/1004.5601 710000[\iddots].
47624 2013-04-09 11:36:04 /1004/1004.5578 1020000[\onltab, \onllongtab].
47625 2013-04-09 11:35:39 /1005/1005.0001 210000[\mathds].
47626 2013-04-09 11:35:31 /1004/1004.5593 6010000[\theappendix].
47627 2013-04-09 11:35:03 /1004/1004.5568 420000[\@end@institute]; 1 missing file[aps-bibstyle.sty].
47628 2013-04-09 11:34:33 /1004/1004.5564 5120000[\psfig, \bodymatter, \tbl, \keywords]; 1 missing file[ws.sty].
47629 2013-04-09 11:34:30 /1004/1004.5559 4830000[\rrbracket, \llbracket]; 1 missing file[euro.sty].
47630 2013-04-09 11:34:22 /1004/1004.5566 430000[\ack, \psfrag, \ead].
47631 2013-04-09 11:34:14 /1004/1004.5532 6730000[\contraction, \psfrag]; 1 missing file[simplewick.sty].
47632 2013-04-09 11:34:12 /1004/1004.5553 22130000[Align, \xymatrix, \ar]; 10 missing files[xycurve.sty, xymatrix.sty, xyline.sty, xyarrow.sty, xycmtip.sty, xycolor.sty, xyrotate.sty, xy.sty, xyframe.sty, xygraph.sty].
47633 2013-04-09 11:34:05 /1004/1004.5555 620000[\cortext]; 1 missing file[threeparttable.sty].
47634 2013-04-09 11:33:53 /1004/1004.5558 2130000[\layoutstyle, \classification]; 1 missing file[{aipcheck}].
47635 2013-04-09 11:33:52 /1004/1004.5543 3110000[\@end@institute].
47636 2013-04-09 11:33:51 /1004/1004.5545 010000[\unit].
47637 2013-04-09 11:33:46 /1004/1004.5537 46100000[Align, {numcases}].
47638 2013-04-09 11:33:38 /1004/1004.5549 2110000[\obar].
47639 2013-04-09 11:33:32 /1004/1004.5551 2140000[\IEEEauthorblockA, \IEEEauthorblockN, {proof}, \IEEEauthorrefmark]; 1 missing file[IEEEtran.cls].
47640 2013-04-09 11:33:16 /1004/1004.5540 2840000[\IEEEauthorblockA, \IEEEauthorblockN, {IEEEproof}, \IEEEauthorrefmark]; 1 missing file[IEEEtran.cls].
47641 2013-04-09 11:32:41 /1004/1004.5535 030000[{theacknowledgments}, \layoutstyle, \classification].
47642 2013-04-09 11:32:30 /1004/1004.5528 3100000[\history, \lastpage, \citep, \Author, \address, \keyword, \doinum, \Title, \pubvolume, \pubyear]; 1 missing file[mdpi.cls].
47643 2013-04-09 11:32:22 /1004/1004.5513 3020000[\citen].
47644 2013-04-09 11:32:08 /1004/1004.5512 960000[\tempbox, Align, {BMAT}]; 1 missing file[easybmat.sty].
47645 2013-04-09 11:31:52 /1004/1004.5500 64850000[\shortrightarrow].
47646 2013-04-09 11:31:29 /1004/1004.5502 970000[\GCirc, \Text, \Line, \LongArrow, \DashLine, \Gluon]; 1 missing file[mathcomp.sty].
47647 2013-04-09 11:31:02 /1004/1004.5492 1610000[{comment}].
47648 2013-04-09 11:30:51 /1004/1004.5489 010000[\mathds].
47649 2013-04-09 11:30:42 /1004/1004.5479 5710000[{keywords}]; 1 missing file[IEEETran.cls].
47650 2013-04-09 11:29:58 /1004/1004.5433 81410000[\Bbb, \setmid, {lemma}, \subsetneq, {theorem}, {fact}, \nsim, \nmid, \QED, \supsetneq, {corollary}, {proof}, \genlist]; 1 missing file[Mtex.sty].
47651 2013-04-09 11:29:45 /1004/1004.5468 1320000[\FloatBarrier]; 1 missing file[afterpage.sty].
47652 2013-04-09 11:29:36 /1004/1004.5483 2370000[\sodauthor, \rauthor, \address, \sodtitle, \dates, \PACS, \rtitle].
47653 2013-04-09 11:29:03 /1004/1004.5421 34250000[\theappendix, \authorblockN, \authorblockA, \appendices, {proof}]; 1 missing file[IEEEtran.cls].
47654 2013-04-09 11:29:00 /1004/1004.5477 28350000[Align, {subeqnarray}].
47655 2013-04-09 11:28:55 /1004/1004.5475 1040000[Align, \xymatrix, \ar]; 1 missing file[tipa.sty].
47656 2013-04-09 11:28:33 /1004/1004.5447 97380000[Align, \xymatrix, \ar].
47657 2013-04-09 11:28:12 /1004/1004.5454 3990000[\@end@institute]; 1 missing file[fix-cm.sty].
47658 2013-04-09 11:27:59 /1004/1004.5448 1410000[\cortext].
47659 2013-04-09 11:27:47 /1004/1004.5464 060000[\citeauthoryear, \plotone, \altaffiltext, \altaffilmark]; 1 missing file[asp2006.sty].
47660 2013-04-09 11:27:42 /1004/1004.5449 2440000[\includegraphics, \kword, \abst, \inst]; 1 missing file[jpsj3.cls].
47661 2013-04-09 11:27:37 /1004/1004.5425 9310000[\mathinner].
47662 2013-04-09 11:27:26 /1004/1004.5363 122210000[\widenhead, \filright, \filleft, \filcenter, \headrule, \chaptertitlename, \chaptermark, \newpagestyle, \titleformat, \sectiontitle, \titlerule, \sethead, \renewpagestyle].
47663 2013-04-09 11:27:11 /1004/1004.5438 210000[\geometry].
47664 2013-04-09 11:26:53 /1004/1004.5407 2470000[{definition}, {lemma}, {theorem}, \BbbR, {AMS}, \bfR, {proof}].
47665 2013-04-09 11:26:51 /1004/1004.5442 7110000[\Book, \pacs, \inst, \shortauthor, \institute, \shorttitle, \Publ, \Name, \Year, \REVIEW]; 1 missing file[epl2.cls].
47666 2013-04-09 11:26:30 /1004/1004.5443 040000[\extrasenglish, \dateenglish, \captionsenglish]; 1 missing file[esint.sty].
47667 2013-04-09 11:26:19 /1004/1004.5393 1820000[\theappendix]; 1 missing file[apjfonts.sty].
47668 2013-04-09 11:25:41 /1004/1004.5411 320000[\al@MP05,
47669 2013-04-09 11:25:26 /1004/1004.5381 1560000[\FAVert, \FADiagram, {feynartspicture}, \psfrag, \FALabel, \FAProp].
47670 2013-04-09 11:25:26 /1004/1004.5437 810000[\columns].
47671 2013-04-09 11:25:25 /1004/1004.5413 520000[\catchline]; 1 missing file[ws.sty].
47672 2013-04-09 11:25:10 /1004/1004.5403 310000[\theappendix].
47673 2013-04-09 11:25:09 /1004/1004.5415 0230000[\affil, \apj, \aj, \citep, \epsscale, \ga, \aap, \apjs, \mnras, \defcitealias, \citet, \citetext, \plottwo, \citetalias]; 1 missing file[asp2006.sty].
47674 2013-04-09 11:25:04 /1004/1004.5343 2980000[Align, \xymatrixcolsep, {xy}, \xymatrix, \ar, \xymatrixrowsep]; 1 missing file[xy.sty].
47675 2013-04-09 11:24:35 /1004/1004.5390 320000[\psfrag]; 1 missing file[eso-pic.sty].
47676 2013-04-09 11:24:21 /1004/1004.5388 240000[\ead].
47677 2013-04-09 11:23:59 /1004/1004.5379 4100000[\apj, \aj, \apjl, \aap, \nat, \mnras, \apjs, \pasp, \araa]; 1 missing file[journals.sty].
47678 2013-04-09 11:23:48 /1004/1004.5384 320000[\frqq, \flqq].
47679 2013-04-09 11:23:45 /1004/1004.5367 1920000[{keywords}, \IEEEmembership]; 1 missing file[IEEEtran.cls].
47680 2013-04-09 11:23:39 /1004/1004.5357 3230000[\node, \arrow, {diagram}].
47681 2013-04-09 11:23:35 /1004/1004.5368 1140000[\BookTitle, \makeauthorindex, \CopyRight]; 1 missing file[universe.sty].
47682 2013-04-09 11:23:25 /1004/1004.5342 710000[\mathbold].
47683 2013-04-09 11:23:25 /1004/1004.5370 2140000[\conferenceinfo, \affaddr, \numberofauthors, \terms, \alignauthor, \keywords, \pdfpageheight, \crdata, \email, \CopyrightYear, \category, \pdfpagewidth].
47684 2013-04-09 11:23:17 /1004/1004.5375 3230000[\includepdf, \@end@institute]; 1 missing file[pdfpages.sty].
47685 2013-04-09 11:23:07 /1004/1004.5372 1120000[\dsum, \tag].
47686 2013-04-09 11:22:51 /1004/1004.5358 410000[\na].
47687 2013-04-09 11:22:26 /1004/1004.5361 610000[\geometry].
47688 2013-04-09 11:22:25 /1004/1004.5329 11100000[\theappendix, \theoremheaderfont, \renewtheorem, \theorembodyfont, \theoremstyle, \theoremsymbol, \theoremseparator].
47689 2013-04-09 11:22:20 /1004/1004.5323 20120000[Align, \xymatrix, \ar]; 9 missing files[xycurve.sty, xymatrix.sty, xyline.sty, xyarrow.sty, xycmtip.sty, xycolor.sty, xyrotate.sty, xyframe.sty, xygraph.sty].
47690 2013-04-09 11:21:23 /1004/1004.5337 510000[\geometry].
47691 2013-04-09 11:21:22 /1004/1004.5308 9550000[\endxy, \xyoption, \ellipse, \xy, \frm].
47692 2013-04-09 11:21:05 /1004/1004.5345 390000[\eqref, \mathbb, \theoremstyle, \operatorname, {classification}, \psfrag, \text, \contact, \frak]; 1 missing file[icm2010.cls].
47693 2013-04-09 11:21:00 /1004/1004.5339 060000[\ref, \md, \mo, \section, \cite, \emph].
47694 2013-04-09 11:20:58 /1004/1004.5333 7030000[Align, \cortext, \biboptions].
47695 2013-04-09 11:20:56 /1004/1004.5326 350000[\crefrange, \cref, \cortext, \crefname]; 1 missing file[cleveref.sty].
47696 2013-04-09 11:20:41 /1004/1004.5330 2620000[\affiliation, {acknowledgements}].
47697 2013-04-09 11:20:26 /1004/1004.5334 7130000[\Ast, \abstcol, \unit, \institute, \keywords, \journalname, \nicefrac, \includegraphics, \titlerunning, \mail, \authorrunning, {acknowledgement}, \received]; 1 missing file[wiley2sp.cls].
47698 2013-04-09 11:19:47 /1004/1004.5293 60190000[\pt, \syst, \ra, \stat, \degr, \TeV, \pT, \subref, \GeV, \hugehead]; 1 missing file[atlasphysics.sty].
47699 2013-04-09 11:19:23 /1004/1004.5301 1010000[Align].
47700 2013-04-09 11:18:53 /1004/1004.5274 3860000[{IEEEkeywords}, \IEEEPARstart, \IEEEpeerreviewmaketitle, \IEEEmembership, \appendices, {IEEEproof}]; 1 missing file[IEEEtran.cls].
47701 2013-04-09 11:18:48 /1004/1004.5299 020000[\PACS]; 1 missing file[size11.clo.sty].
47702 2013-04-09 11:18:44 /1004/1004.5286 410000[\mathds].
47703 2013-04-09 11:18:37 /1004/1004.5231 7410000[\psfrag].
47704 2013-04-09 11:18:29 /1004/1004.5276 1310000[\psfrag].
47705 2013-04-09 11:18:29 /1004/1004.5292 530000[\dottedline, \arc, \path].
47706 2013-04-09 11:18:16 /1004/1004.5275 810000[\subfloat].
47707 2013-04-09 11:18:04 /1004/1004.5235 16640000[Align, \xymatrix, \ar]; 1 missing file[xy.sty].
47708 2013-04-09 11:18:02 /1004/1004.5242 39200000[{overpic}]; 1 missing file[ccaption.sty].
47709 2013-04-09 11:17:44 /1004/1004.5261 25130000[\Abstract, \ArticleName, \ShortArticleName, \FirstPageHeading, \Address, \LastPageEnding, \Classification, \ArticleDates, \Author, \Email, \AuthorNameForHeading, \Keywords].
47710 2013-04-09 11:17:40 /1004/1004.5233 8310000[\psfrag].
47711 2013-04-09 11:17:40 /1004/1004.5262 990000[\allinethickness, \ellipse, \geometry, \path]; 1 missing file[parskip.sty].
47712 2013-04-09 11:17:18 /1004/1004.5246 060000[\extrasenglish, {keywords}, \appendixpage, \institution, \dateenglish, \captionsenglish].
47713 2013-04-09 11:17:08 /1004/1004.5268 1440000[\ShortTitle, \email, \FullConference, \speaker]; 1 missing file[PoS.cls].
47714 2013-04-09 11:16:54 /1004/1004.5271 1910000[\varv].
47715 2013-04-09 11:16:44 /1004/1004.5253 10350000[{keywords}, \lesssim, \doi, \jvol, \issn, \jyear, \includegraphics, \jmonth, \jnum, \issnp]; 1 missing file[gGAF2e.cls].
47716 2013-04-09 11:16:31 /1004/1004.5256 540000[\a, \address, \addressmark, \keywords]; 1 missing file[sample-algotel.cls].
47717 2013-04-09 11:16:01 /1004/1004.5250 050000[\theappendix, \extrasenglish, \dateenglish, \captionsenglish]; 1 missing file[esint.sty].
47718 2013-04-09 11:15:56 /1004/1004.5227 17110000[{lemma}, {theorem}, {corollary}, \endproof, {proof}, \thetheorem, {proposition}].
47719 2013-04-09 11:15:56 /1004/1004.5249 560000[Align, \xyoption, \xymatrix, \ar]; 1 missing file[xy.sty].
47720 2013-04-09 11:15:45 /1004/1004.5234 450000[\supscr, \linkable, \affiliation, \acknowledgments, \keywords]; 1 missing file[spiejour.cls].
47721 2013-04-09 11:15:43 /1004/1004.5226 3410000[\geometry].
47722 2013-04-09 11:15:37 /1004/1004.5191 8910000[\@currentID].
47723 2013-04-09 11:15:24 /1004/1004.5170 14230000[Align, \xymatrix, \ar].
47724 2013-04-09 11:15:20 /1004/1004.5208 43130000[Align, \boxbar, \xymatrix, \ar]; 9 missing files[xycurve.sty, xymatrix.sty, xyline.sty, xyarrow.sty, xycmtip.sty, xycolor.sty, xyrotate.sty, xyframe.sty, xygraph.sty].
47725 2013-04-09 11:15:02 /1004/1004.5229 46440000[{algorithm}, \EndFor, \Else, {algorithmic}, \For, \If, \State, \Require, {numcases}, \Ensure, \EndIf].
47726 2013-04-09 11:14:23 /1004/1004.5214 1420000[\IEEEoverridecommandlockouts]; 2 missing files[IEEEtran.cls, xy.sty].
47727 2013-04-09 11:14:05 /1004/1004.5189 9460000[{IEEEkeywords}, \IEEEPARstart, \IEEEpeerreviewmaketitle, \ifCLASSINFOpdf]; 1 missing file[IEEEtran.cls].
47728 2013-04-09 11:14:04 /1004/1004.5216 110000[\IEEEoverridecommandlockouts]; 1 missing file[IEEEtran.cls].
47729 2013-04-09 11:14:00 /1004/1004.5202 230000[\setulcolor, \sethlcolor]; 1 missing file[soul.sty].
47730 2013-04-09 11:13:57 /1004/1004.5217 310000[{proof}]; 1 missing file[IEEEtran.cls].
47731 2013-04-09 11:13:28 /1004/1004.5205 010000[\meter].
47732 2013-04-09 11:13:18 /1004/1004.5167 1740000[Align, \xymatrix, \ar]; 1 missing file[xy.sty].
47733 2013-04-09 11:13:09 /1004/1004.5195 030000[\fancyplain, \footrulewidth, \headrulewidth].
47734 2013-04-09 11:12:53 /1004/1004.5157 1050000[{IEEEkeywords}, \IEEEPARstart, \psfrag, \IEEEmembership]; 2 missing files[afterpage.sty, IEEEtran.cls].
47735 2013-04-09 11:12:50 /1004/1004.5169 8270000[\subref, \psfrag, \biboptions].
47736 2013-04-09 11:12:37 /1004/1004.5186 17100000[\If, \For, \KwIn, {algorithm}, \Return, \KwOut, \tcc].
47737 2013-04-09 11:12:16 /1004/1004.5144 1320000[\U]; 1 missing file[ot2.fontmap].
47738 2013-04-09 11:12:11 /1004/1004.5171 1160000[\vs, \apj, \inst, \normalem, \aap, \volnopage, \titlerunning, \no, \authorrunning, {acknowledgements}, \dms, \aj, \institute, \hms, \apss, \keywords]; 1 missing file[raa.cls].
47739 2013-04-09 11:11:55 /1004/1004.5151 4530000[\psfragfig, \psfrag]; 1 missing file[auto-pst-pdf.sty].
47740 2013-04-09 11:11:10 /1004/1004.5163 020000[\layoutstyle, \classification].
47741 2013-04-09 11:10:59 /1004/1004.5052 75940000[\Od, \@thanks, {overpic}, \@date, \@title, {centering}]; 1 missing file[caption2%.sty].
47742 2013-04-09 11:10:52 /1004/1004.5134 620000[\theappendix].
47743 2013-04-09 11:10:50 /1004/1004.5153 310000[{comment}].
47744 2013-04-09 11:10:37 /1004/1004.5136 230000[Align, \psfrag]; 1 missing file[equation.sty].
47745 2013-04-09 11:10:34 /1004/1004.5139 610000[\theappendix].
47746 2013-04-09 11:09:56 /1004/1004.5128 750000[\address, \thanksref, {ack}, {frontmatter}, {keyword}]; 1 missing file[ifacconf.cls].
47747 2013-04-09 11:09:54 /1004/1004.5120 3750000[Align, \xymatrix, \rrbracket, \ar]; 1 missing file[xy.sty].
47748 2013-04-09 11:09:41 /1004/1004.5104 3110000[\hLine, \rdLine, \rLine, \dateenglish, \extrasenglish, Align, \captionsenglish, {diagram}, \ruLine].
47749 2013-04-09 11:09:34 /1004/1004.5069 4430000[\layoutstyle, \classification]; 1 missing file[{aipcheck}].
47750 2013-04-09 11:09:13 /1004/1004.5102 030000[\@end@institute].
47751 2013-04-09 11:09:06 /1004/1004.5091 2820000[\FiveStarOpen, \k].
47752 2013-04-09 11:08:53 /1004/1004.5089 110000[\fntext].
47753 2013-04-09 11:08:51 /1004/1004.5086 10620000[\theappendix]; 1 missing file[soul.sty].
47754 2013-04-09 11:08:27 /1004/1004.5095 120000[\rrbracket, \llbracket].
47755 2013-04-09 11:08:22 /1004/1004.5093 2130000[\kword, \abst, \inst]; 1 missing file[jpsj3.cls].
47756 2013-04-09 11:08:09 /1004/1004.5079 220000[\hexagon, \ead].
47757 2013-04-09 11:08:05 /1004/1004.5097 070000[\ccode, \catchline, {history}, \revised, \keywords, \received]; 1 missing file[ws.sty].
47758 2013-04-09 11:08:00 /1004/1004.5070 610000[\IEEEmembership]; 1 missing file[IEEEtran.cls].
47759 2013-04-09 11:07:58 /1004/1004.5081 030000[\extrasenglish, \dateenglish, \captionsenglish].
47760 2013-04-09 11:07:47 /1004/1004.5037 4980000[{sidewaystable}].
47761 2013-04-09 11:07:43 /1004/1004.5084 570000[\4, \9, \0, \3, \dn]; 2 missing files[dev.sty, xy.sty].
47762 2013-04-09 11:07:25 /1004/1004.5076 1810000[{keywords}]; 1 missing file[IEEEtran.cls].
47763 2013-04-09 11:07:16 /1004/1004.5049 2850000[{IEEEkeywords}, {IEEEbiography}, \IEEEpeerreviewmaketitle, \IEEEmembership, {proof}]; 1 missing file[IEEEtran.cls].
47764 2013-04-09 11:07:14 /1004/1004.5074 520000[\inserttype]; 2 missing files[ba.cls, bayes.sty].
47765 2013-04-09 11:07:12 /1004/1004.4873 430110000[{appendices}, \mathds, \pdfbookmark, \APLnot]; 1 missing file[afterpage.sty].
47766 2013-04-09 11:06:47 /1004/1004.5032 98200000[\diagram, {theo}, \uto, {lemm}, \address, \email, {altabstract}, {enonce}, {coro}, {defi}, {prop}, \theoremstyle, {conj}, \rto, {rema}, \enddiagram, Align, \dedicatory, {proof}]; 2 missing files[smfartVS.cls, xy.sty].
47767 2013-04-09 11:06:46 /1004/1004.5029 12180000[\extraline, {clai}, \classno, {rema}, \newnumbered, \newunnumbered, \nicefrac, \email, \bibname, \affiliationone, \psfrag, {ques}, {proof}, \affiliationtwo, {acknowledgements}]; 1 missing file[hypcap.sty].
47768 2013-04-09 11:06:46 /1004/1004.5045 2610000[\longtabL].
47769 2013-04-09 11:06:37 /1004/1004.5064 0120000[Align, \xymatrix, \ar]; 9 missing files[xycurve.sty, xymatrix.sty, xyline.sty, xyarrow.sty, xycmtip.sty, xycolor.sty, xyrotate.sty, xyframe.sty, xygraph.sty].
47770 2013-04-09 11:06:17 /1004/1004.5053 2130000[\smaller]; 2 missing files[colordvi.sty, soul.sty].
47771 2013-04-09 11:06:09 /1004/1004.5067 020000[{comment}].
47772 2013-04-09 11:05:48 /1004/1004.5017 410000[\mathds].
47773 2013-04-09 11:05:46 /1004/1004.5043 37430000[\mls, \sda, \mtot, \mdiskstar, \mmol, \mldyndisk, \vdiskstar, \slos, \mlsldisk, \sobs, \sds, \mdisk, \vc, \mbar, \sinst, \mhi, \sdm, \vdisk, \mlsdisk, \sigr, \sinstT, \Fdisk, \mlskdisk, \msol, \sigz, \sinstG, \stm, \vt, \sdhi, \fsd, \mhalo, \vobs, \vrot,
47774 2013-04-09 11:05:32 /1004/1004.5055 030000[\extrasenglish, \dateenglish, \captionsenglish].
47775 2013-04-09 11:05:11 /1004/1004.5058 6130000[\Book, \pacs, \inst, \shortauthor, \institute, \acknowledgments, \includegraphics, \Publ, \shorttitle, \Name, \Year, \REVIEW, \etal]; 1 missing file[epl2.cls].
47776 2013-04-09 11:04:54 /1004/1004.4942 11150000[\prefacesection, \@title, \midrule, \toprule, \bottomrule].
47777 2013-04-09 11:04:41 /1004/1004.5041 5140000[\Book, \pacs, \institute, \acknowledgments, \includegraphics, \Publ, \shorttitle, \Name, \Year, \REVIEW]; 1 missing file[epl2.cls].
47778 2013-04-09 11:04:25 /1004/1004.4979 6070000[Align, \xymatrixcolsep, \xyoption, \xymatrix, \ar, \xymatrixrowsep]; 1 missing file[xy.sty].
47779 2013-04-09 11:04:06 /1004/1004.5026 4160000[{definition}, {lemma}, {theorem}, {AMS}, {proof}, {proposition}].
47780 2013-04-09 11:03:56 /1004/1004.5011 16910000[\psfrag].
47781 2013-04-09 11:03:36 /1004/1004.5018 030000[\extrasenglish, \dateenglish, \captionsenglish].
47782 2013-04-09 11:03:25 /1004/1004.5025 2320000[\pacs, \institute]; 1 missing file[epl2.cls].
47783 2013-04-09 11:03:06 /1004/1004.5014 1310000[\geometry].
47784 2013-04-09 11:02:57 /1004/1004.4964 7850000[\extrasenglish, \noextrasenglish, \geometry, \dateenglish, \captionsenglish].
47785 2013-04-09 11:02:38 /1004/1004.4996 1510000[\keywords]; 1 missing file[JINST.cls].
47786 2013-04-09 11:02:37 /1004/1004.4998 660000[Align, \mathds, \txt, \xymatrix, \ar]; 1 missing file[xy.sty].
47787 2013-04-09 11:02:14 /1004/1004.5003 030000[\extrasenglish, \dateenglish, \captionsenglish].
47788 2013-04-09 11:01:50 /1004/1004.4992 620000[\underset]; 1 missing file[xy.sty].
47789 2013-04-09 11:01:11 /1004/1004.4977 540000[\bodymatter, \tbl, \keywords]; 1 missing file[ws.sty].
47790 2013-04-09 11:01:04 /1004/1004.4975 020000[\ack, \ead].
47791 2013-04-09 11:00:55 /1004/1004.4937 60800000[Align, \@end@institute, \xymatrix, \ar]; 9 missing files[xycurve.sty, xymatrix.sty, xyline.sty, xyarrow.sty, xycmtip.sty, xycolor.sty, xyrotate.sty, xyframe.sty, xygraph.sty].
47792 2013-04-09 11:00:41 /1004/1004.4971 210000[\rmxaa].
47793 2013-04-09 11:00:30 /1004/1004.4953 1030000[\setmargrb, \setpapersize]; 1 missing file[colordvi.sty].
47794 2013-04-09 11:00:03 /1004/1004.4959 210000[\modulolinenumbers].
47795 2013-04-09 10:59:15 /1004/1004.4931 640000[{theacknowledgments}, \layoutstyle, \classification]; 1 missing file[{aipcheck}].
47796 2013-04-09 10:59:12 /1004/1004.4921 570000[{lemma}, {theorem}, {AMS}, {proof}, \diag].
47797 2013-04-09 10:59:09 /1004/1004.4882 8640000[\extrasenglish, \geometry, \dateenglish, \captionsenglish].
47798 2013-04-09 10:58:56 /1004/1004.4816 65130000[\vlos, \mls, \mlsk, \vrot, \Fdisk, \sddisk, \vsys, \mldyndisk, \sslos, \mlsdisk, \slos, \mldynkdisk]; 1 missing file[{dmnom_rv4.tex}].
47799 2013-04-09 10:58:53 /1004/1004.4915 1020000[\theappendix, \pdfbookmark].
47800 2013-04-09 10:58:42 /1004/1004.4917 7270000[\authorblockN, \minuso, \authorblockA, {proof}, \footernote]; 3 missing files[IEEEtran.cls, shadow.sty, fixmath.sty].
<<< >>>

[0] [200] [400] [600] [800] [1000] [1200] [1400] [1600] [1800] [2000] [2200] [2400] [2600] [2800] [3000] [3200] [3400] [3600] [3800] [4000] [4200] [4400] [4600] [4800] [5000] [5200] [5400] [5600] [5800] [6000] [6200] [6400] [6600] [6800] [7000] [7200] [7400] [7600] [7800] [8000] [8200] [8400] [8600] [8800] [9000] [9200] [9400] [9600] [9800] [10000] [10200] [10400] [10600] [10800] [11000] [11200] [11400] [11600] [11800] [12000] [12200] [12400] [12600] [12800] [13000] [13200] [13400] [13600] [13800] [14000] [14200] [14400] [14600] [14800] [15000] [15200] [15400] [15600] [15800] [16000] [16200] [16400] [16600] [16800] [17000] [17200] [17400] [17600] [17800] [18000] [18200] [18400] [18600] [18800] [19000] [19200] [19400] [19600] [19800] [20000] [20200] [20400] [20600] [20800] [21000] [21200] [21400] [21600] [21800] [22000] [22200] [22400] [22600] [22800] [23000] [23200] [23400] [23600] [23800] [24000] [24200] [24400] [24600] [24800] [25000] [25200] [25400] [25600] [25800] [26000] [26200] [26400] [26600] [26800] [27000] [27200] [27400] [27600] [27800] [28000] [28200] [28400] [28600] [28800] [29000] [29200] [29400] [29600] [29800] [30000] [30200] [30400] [30600] [30800] [31000] [31200] [31400] [31600] [31800] [32000] [32200] [32400] [32600] [32800] [33000] [33200] [33400] [33600] [33800] [34000] [34200] [34400] [34600] [34800] [35000] [35200] [35400] [35600] [35800] [36000] [36200] [36400] [36600] [36800] [37000] [37200] [37400] [37600] [37800] [38000] [38200] [38400] [38600] [38800] [39000] [39200] [39400] [39600] [39800] [40000] [40200] [40400] [40600] [40800] [41000] [41200] [41400] [41600] [41800] [42000] [42200] [42400] [42600] [42800] [43000] [43200] [43400] [43600] [43800] [44000] [44200] [44400] [44600] [44800] [45000] [45200] [45400] [45600] [45800] [46000] [46200] [46400] [46600] [46800] [47000] [47200] [47400] [47600] [47800] [48000] [48200] [48400] [48600] [48800] [49000] [49200] [49400] [49600] [49800] [50000] [50200] [50400] [50600] [50800] [51000] [51200] [51400] [51600] [51800] [52000] [52200] [52400] [52600] [52800] [53000] [53200] [53400] [53600] [53800] [54000] [54200] [54400] [54600] [54800] [55000] [55200] [55400] [55600] [55800] [56000] [56200] [56400] [56600] [56800] [57000] [57200] [57400] [57600] [57800] [58000] [58200] [58400] [58600] [58800] [59000] [59200] [59400] [59600] [59800] [60000] [60200] [60400] [60600] [60800] [61000] [61200] [61400] [61600] [61800] [62000] [62200] [62400] [62600] [62800] [63000] [63200] [63400] [63600] [63800] [64000] [64200] [64400] [64600] [64800] [65000] [65200] [65400] [65600] [65800] [66000] [66200] [66400] [66600] [66800] [67000] [67200] [67400] [67600] [67800] [68000] [68200] [68400] [68600] [68800] [69000] [69200] [69400] [69600] [69800] [70000] [70200] [70400] [70600] [70800] [71000] [71200] [71400] [71600] [71800] [72000] [72200] [72400] [72600] [72800] [73000] [73200] [73400] [73600] [73800] [74000] [74200] [74400] [74600] [74800] [75000] [75200] [75400] [75600] [75800] [76000] [76200] [76400] [76600] [76800] [77000] [77200] [77400] [77600] [77800] [78000] [78200] [78400] [78600] [78800] [79000] [79200] [79400] [79600] [79800] [80000] [80200] [80400] [80600] [80800] [81000] [81200] [81400] [81600] [81800] [82000] [82200] [82400] [82600] [82800] [83000] [83200] [83400] [83600] [83800] [84000] [84200] [84400] [84600] [84800] [85000] [85200] [85400] [85600] [85800] [86000] [86200] [86400] [86600] [86800] [87000] [87200] [87400] [87600] [87800] [88000] [88200] [88400] [88600] [88800] [89000] [89200] [89400] [89600] [89800] [90000] [90200] [90400] [90600] [90800] [91000] [91200] [91400] [91600] [91800] [92000] [92200] [92400] [92600] [92800] [93000] [93200] [93400] [93600] [93800] [94000] [94200] [94400] [94600] [94800] [95000] [95200] [95400] [95600] [95800] [96000] [96200] [96400] [96600] [96800] [97000] [97200] [97400] [97600] [97800] [98000] [98200] [98400] [98600] [98800] [99000] [99200] [99400] [99600] [99800] [100000] [100200] [100400] [100600] [100800] [101000] [101200] [101400] [101600] [101800] [102000] [102200] [102400] [102600] [102800] [103000] [103200] [103400] [103600] [103800] [104000] [104200] [104400] [104600] [104800] [105000] [105200] [105400] [105600] [105800] [106000] [106200] [106400] [106600] [106800] [107000] [107200] [107400] [107600] [107800] [108000] [108200] [108400] [108600] [108800] [109000] [109200] [109400] [109600] [109800] [110000] [110200] [110400] [110600] [110800] [111000] [111200] [111400] [111600] [111800] [112000] [112200] [112400] [112600] [112800] [113000] [113200] [113400] [113600] [113800] [114000] [114200] [114400] [114600] [114800] [115000] [115200] [115400] [115600] [115800] [116000] [116200] [116400] [116600] [116800] [117000] [117200] [117400] [117600] [117800] [118000] [118200] [118400] [118600] [118800] [119000] [119200] [119400] [119600] [119800] [120000] [120200] [120400] [120600] [120800] [121000] [121200] [121400] [121600] [121800] [122000] [122200] [122400] [122600] [122800] [123000] [123200] [123400] [123600] [123800] [124000] [124200] [124400] [124600] [124800] [125000] [125200] [125400] [125600] [125800] [126000] [126200] [126400] [126600] [126800] [127000] [127200] [127400] [127600] [127800] [128000] [128200] [128400] [128600] [128800] [129000] [129200] [129400] [129600] [129800] [130000] [130200] [130400] [130600] [130800] [131000] [131200] [131400] [131600] [131800] [132000] [132200] [132400] [132600] [132800] [133000] [133200] [133400] [133600] [133800] [134000] [134200] [134400] [134600] [134800] [135000] [135200] [135400] [135600] [135800] [136000] [136200] [136400] [136600] [136800] [137000] [137200] [137400] [137600] [137800] [138000] [138200] [138400] [138600] [138800] [139000] [139200] [139400] [139600] [139800] [140000] [140200] [140400] [140600] [140800] [141000] [141200] [141400] [141600] [141800] [142000] [142200] [142400] [142600] [142800] [143000] [143200] [143400] [143600] [143800] [144000] [144200] [144400] [144600] [144800] [145000] [145200] [145400] [145600] [145800] [146000] [146200] [146400] [146600] [146800] [147000] [147200] [147400] [147600] [147800] [148000] [148200] [148400] [148600] [148800] [149000] [149200] [149400] [149600] [149800] [150000] [150200] [150400] [150600] [150800] [151000] [151200] [151400] [151600] [151800] [152000] [152200] [152400] [152600] [152800] [153000] [153200] [153400] [153600] [153800] [154000] [154200] [154400] [154600] [154800] [155000] [155200] [155400] [155600] [155800] [156000] [156200] [156400] [156600] [156800] [157000] [157200] [157400] [157600] [157800] [158000] [158200] [158400] [158600] [158800] [159000] [159200] [159400] [159600] [159800] [160000] [160200] [160400] [160600] [160800] [161000] [161200] [161400] [161600] [161800] [162000] [162200] [162400] [162600] [162800] [163000] [163200] [163400] [163600] [163800] [164000] [164200] [164400] [164600]
 
  The service has been written by
Heinrich Stamerjohanns